Time,TemperatureF,DewpointF,PressureIn,WindDirection,WindDirectionDegrees,WindSpeedMPH,WindSpeedGustMPH,Humidity,HourlyPrecipIn,Conditions,Clouds,dailyrainin,SoftwareType,DateUTC
2013-05-24 00:04:00,39.7,24.9,30.32,NE,49,0.0,0.0,55,0.00,CLR,,0.00,WeatherDisplay:10.37,2013-05-24 05:04:00,
2013-05-24 00:09:00,39.4,24.5,30.32,NE,49,0.0,0.0,55,0.00,CLR,,0.00,WeatherDisplay:10.37,2013-05-24 05:09:00,
2013-05-24 00:14:00,39.2,24.8,30.32,NE,49,0.0,0.0,56,0.00,CLR,,0.00,WeatherDisplay:10.37,2013-05-24 05:14:00,
2013-05-24 00:19:00,38.8,24.9,30.35,NE,49,0.0,0.0,57,0.00,CLR,,0.00,WeatherDisplay:10.37,2013-05-24 05:19:00,
2013-05-24 00:24:00,38.5,25.0,30.35,NE,49,0.0,0.0,58,0.00,CLR,,0.00,WeatherDisplay:10.37,2013-05-24 05:24:00,
2013-05-24 00:29:00,38.3,25.2,30.35,NE,49,0.0,0.0,59,0.00,CLR,,0.00,WeatherDisplay:10.37,2013-05-24 05:29:00,
2013-05-24 00:35:00,38.1,25.0,30.35,NE,49,0.0,0.0,59,0.00,CLR,,0.00,WeatherDisplay:10.37,2013-05-24 05:35:00,
2013-05-24 00:40:00,37.9,24.9,30.35,NE,49,0.0,0.0,59,0.00,CLR,,0.00,WeatherDisplay:10.37,2013-05-24 05:40:00,
2013-05-24 00:45:00,37.8,25.1,30.35,NE,49,0.0,0.0,60,0.00,CLR,,0.00,WeatherDisplay:10.37,2013-05-24 05:45:00,
2013-05-24 00:51:00,37.6,24.9,30.35,NE,49,0.0,0.0,60,0.00,CLR,,0.00,WeatherDisplay:10.37,2013-05-24 05:51:00,
2013-05-24 00:56:00,37.4,24.8,30.35,NE,49,0.0,0.0,60,0.00,CLR,,0.00,WeatherDisplay:10.37,2013-05-24 05:56:00,
2013-05-24 01:01:00,37.2,25.0,30.35,NE,49,0.0,0.0,61,0.00,CLR,,0.00,WeatherDisplay:10.37,2013-05-24 06:01:00,
2013-05-24 01:06:00,37.2,25.0,30.35,NE,49,0.0,0.0,61,0.00,CLR,,0.00,WeatherDisplay:10.37,2013-05-24 06:06:00,
2013-05-24 01:11:00,37.0,24.8,30.35,NE,49,0.0,0.0,61,0.00,CLR,,0.00,WeatherDisplay:10.37,2013-05-24 06:11:00,
2013-05-24 01:16:00,36.9,25.0,30.35,NE,49,0.0,0.0,62,0.00,CLR,,0.00,WeatherDisplay:10.37,2013-05-24 06:16:00,
2013-05-24 01:21:00,36.7,24.9,30.35,NE,49,0.0,0.0,62,0.00,CLR,,0.00,WeatherDisplay:10.37,2013-05-24 06:21:00,
2013-05-24 01:26:00,36.5,24.7,30.35,NE,49,0.0,0.0,62,0.00,CLR,,0.00,WeatherDisplay:10.37,2013-05-24 06:26:00,
2013-05-24 01:31:00,36.3,24.5,30.35,NE,49,0.0,0.0,62,0.00,CLR,,0.00,WeatherDisplay:10.37,2013-05-24 06:31:00,
2013-05-24 01:37:00,36.1,24.4,30.35,NE,49,0.0,0.0,62,0.00,CLR,,0.00,WeatherDisplay:10.37,2013-05-24 06:37:00,
2013-05-24 01:42:00,36.0,24.2,30.35,NE,49,0.0,0.0,62,0.00,CLR,,0.00,WeatherDisplay:10.37,2013-05-24 06:42:00,
2013-05-24 01:47:00,35.8,24.4,30.35,NE,49,0.0,0.0,63,0.00,CLR,,0.00,WeatherDisplay:10.37,2013-05-24 06:47:00,
2013-05-24 01:52:00,35.8,24.4,30.35,NE,49,0.0,0.0,63,0.00,CLR,,0.00,WeatherDisplay:10.37,2013-05-24 06:52:00,
2013-05-24 01:57:00,35.8,24.8,30.35,NE,49,0.0,0.0,64,0.00,CLR,,0.00,WeatherDisplay:10.37,2013-05-24 06:57:00,
2013-05-24 02:02:00,35.8,24.8,30.35,NE,49,0.0,0.0,64,0.00,CLR,,0.00,WeatherDisplay:10.37,2013-05-24 07:02:00,
2013-05-24 02:07:00,35.8,25.2,30.35,NE,49,0.0,0.0,65,0.00,CLR,,0.00,WeatherDisplay:10.37,2013-05-24 07:07:00,
2013-05-24 02:13:00,35.6,25.0,30.35,NE,49,0.0,0.0,65,0.00,CLR,,0.00,WeatherDisplay:10.37,2013-05-24 07:13:00,
2013-05-24 02:18:00,35.6,25.0,30.35,NE,49,0.0,0.0,65,0.00,CLR,,0.00,WeatherDisplay:10.37,2013-05-24 07:18:00,
2013-05-24 02:23:00,35.6,25.4,30.35,NE,49,0.0,0.0,66,0.00,CLR,,0.00,WeatherDisplay:10.37,2013-05-24 07:23:00,
2013-05-24 02:28:00,35.6,25.4,30.35,NE,49,0.0,0.0,66,0.00,CLR,,0.00,WeatherDisplay:10.37,2013-05-24 07:28:00,
2013-05-24 02:33:00,35.6,25.4,30.35,NE,49,0.0,0.0,66,0.00,CLR,,0.00,WeatherDisplay:10.37,2013-05-24 07:33:00,
2013-05-24 02:38:00,35.6,25.7,30.35,NE,49,0.0,0.0,67,0.00,CLR,,0.00,WeatherDisplay:10.37,2013-05-24 07:38:00,
2013-05-24 02:43:00,35.6,25.7,30.35,NE,49,0.0,0.0,67,0.00,CLR,,0.00,WeatherDisplay:10.37,2013-05-24 07:43:00,
2013-05-24 02:48:00,35.4,25.9,30.35,NE,49,0.0,0.0,68,0.00,CLR,,0.00,WeatherDisplay:10.37,2013-05-24 07:48:00,
2013-05-24 02:54:00,35.4,25.9,30.35,NE,49,0.0,0.0,68,0.00,CLR,,0.00,WeatherDisplay:10.37,2013-05-24 07:54:00,
2013-05-24 02:59:00,35.2,26.1,30.35,NE,49,0.0,0.0,69,0.00,CLR,,0.00,WeatherDisplay:10.37,2013-05-24 07:59:00,
2013-05-24 03:04:00,35.2,26.1,30.35,NE,49,0.0,0.0,69,0.00,CLR,,0.00,WeatherDisplay:10.37,2013-05-24 08:04:00,
2013-05-24 03:09:00,35.1,25.9,30.35,NE,49,0.0,0.0,69,0.00,CLR,,0.00,WeatherDisplay:10.37,2013-05-24 08:09:00,
2013-05-24 03:14:00,34.9,25.7,30.35,NE,49,0.0,0.0,69,0.00,CLR,,0.00,WeatherDisplay:10.37,2013-05-24 08:14:00,
2013-05-24 03:19:00,34.7,25.9,30.35,NE,49,0.0,0.0,70,0.00,CLR,,0.00,WeatherDisplay:10.37,2013-05-24 08:19:00,
2013-05-24 03:24:00,34.5,25.7,30.35,NE,49,0.0,0.0,70,0.00,CLR,,0.00,WeatherDisplay:10.37,2013-05-24 08:24:00,
2013-05-24 03:29:00,34.3,25.6,30.35,NE,49,0.0,0.0,70,0.00,CLR,,0.00,WeatherDisplay:10.37,2013-05-24 08:29:00,
2013-05-24 03:34:00,34.2,25.4,30.35,NE,49,0.0,0.0,70,0.00,CLR,,0.00,WeatherDisplay:10.37,2013-05-24 08:34:00,
2013-05-24 03:39:00,34.0,25.2,30.35,NE,49,0.0,0.0,70,0.00,CLR,,0.00,WeatherDisplay:10.37,2013-05-24 08:39:00,
2013-05-24 03:45:00,33.8,25.0,30.35,NE,49,0.0,0.0,70,0.00,CLR,,0.00,WeatherDisplay:10.37,2013-05-24 08:45:00,
2013-05-24 03:50:00,33.6,24.9,30.35,NE,49,0.0,0.0,70,0.00,CLR,,0.00,WeatherDisplay:10.37,2013-05-24 08:50:00,
2013-05-24 03:55:00,33.4,24.7,30.35,NE,49,0.0,0.0,70,0.00,CLR,,0.00,WeatherDisplay:10.37,2013-05-24 08:55:00,
2013-05-24 04:00:00,33.3,24.9,30.35,NE,49,0.0,0.0,71,0.00,CLR,,0.00,WeatherDisplay:10.37,2013-05-24 09:00:00,
2013-05-24 04:05:00,33.3,24.9,30.35,NE,49,0.0,0.0,71,0.00,CLR,,0.00,WeatherDisplay:10.37,2013-05-24 09:05:00,
2013-05-24 04:10:00,33.1,24.7,30.35,NE,49,0.0,0.0,71,0.00,CLR,,0.00,WeatherDisplay:10.37,2013-05-24 09:10:00,
2013-05-24 04:16:00,32.9,24.5,30.35,NE,49,0.0,0.0,71,0.00,CLR,,0.00,WeatherDisplay:10.37,2013-05-24 09:16:00,
2013-05-24 04:21:00,32.9,24.5,30.35,NE,49,0.0,0.0,71,0.00,CLR,,0.00,WeatherDisplay:10.37,2013-05-24 09:21:00,
2013-05-24 04:26:00,32.9,24.5,30.35,NE,49,0.0,0.0,71,0.00,CLR,,0.00,WeatherDisplay:10.37,2013-05-24 09:26:00,
2013-05-24 04:31:00,32.9,24.9,30.35,NE,49,0.0,0.0,72,0.00,CLR,,0.00,WeatherDisplay:10.37,2013-05-24 09:31:00,
2013-05-24 04:37:00,32.9,24.9,30.35,NE,49,0.0,0.0,72,0.00,CLR,,0.00,WeatherDisplay:10.37,2013-05-24 09:37:00,
2013-05-24 04:42:00,32.7,24.7,30.35,NE,49,0.0,0.0,72,0.00,CLR,,0.00,WeatherDisplay:10.37,2013-05-24 09:42:00,
2013-05-24 04:47:00,32.7,24.7,30.38,NE,49,0.0,0.0,72,0.00,CLR,,0.00,WeatherDisplay:10.37,2013-05-24 09:47:00,
2013-05-24 04:52:00,32.7,25.0,30.38,NE,49,0.0,0.0,73,0.00,CLR,,0.00,WeatherDisplay:10.37,2013-05-24 09:52:00,
2013-05-24 04:57:00,32.7,25.0,30.38,NE,49,0.0,0.0,73,0.00,CLR,,0.00,WeatherDisplay:10.37,2013-05-24 09:57:00,
2013-05-24 05:03:00,32.5,24.8,30.38,NE,49,0.0,0.0,73,0.00,CLR,,0.00,WeatherDisplay:10.37,2013-05-24 10:03:00,
2013-05-24 05:08:00,32.5,24.8,30.38,NE,49,0.0,0.0,73,0.00,CLR,,0.00,WeatherDisplay:10.37,2013-05-24 10:08:00,
2013-05-24 05:13:00,32.7,25.3,30.38,NE,49,0.0,0.0,74,0.00,CLR,,0.00,WeatherDisplay:10.37,2013-05-24 10:13:00,
2013-05-24 05:18:00,32.7,25.3,30.38,NE,49,0.0,0.0,74,0.00,CLR,,0.00,WeatherDisplay:10.37,2013-05-24 10:18:00,
2013-05-24 05:24:00,32.7,25.3,30.38,NE,49,0.0,0.0,74,0.00,CLR,,0.00,WeatherDisplay:10.37,2013-05-24 10:24:00,
2013-05-24 05:29:00,32.7,25.3,30.38,NE,49,0.0,0.0,74,0.00,CLR,,0.00,WeatherDisplay:10.37,2013-05-24 10:29:00,
2013-05-24 05:34:00,32.7,25.7,30.38,NE,49,0.0,0.0,75,0.00,CLR,,0.00,WeatherDisplay:10.37,2013-05-24 10:34:00,
2013-05-24 05:40:00,32.7,25.7,30.38,NE,49,0.0,0.0,75,0.00,CLR,,0.00,WeatherDisplay:10.37,2013-05-24 10:40:00,
2013-05-24 05:45:00,32.7,25.7,30.38,NE,49,0.0,0.0,75,0.00,CLR,,0.00,WeatherDisplay:10.37,2013-05-24 10:45:00,
2013-05-24 05:50:00,32.7,25.7,30.38,NE,49,0.0,0.0,75,0.00,CLR,,0.00,WeatherDisplay:10.37,2013-05-24 10:50:00,
2013-05-24 05:55:00,32.7,26.0,30.38,NE,49,0.0,0.0,76,0.00,CLR,,0.00,WeatherDisplay:10.37,2013-05-24 10:55:00,
2013-05-24 06:00:00,32.7,26.0,30.38,NE,49,0.0,0.0,76,0.00,CLR,,0.00,WeatherDisplay:10.37,2013-05-24 11:00:00,
2013-05-24 06:05:00,32.9,26.2,30.38,NE,49,0.0,0.0,76,0.00,CLR,,0.00,WeatherDisplay:10.37,2013-05-24 11:05:00,
2013-05-24 06:10:00,33.1,26.3,30.38,NE,49,0.0,0.0,76,0.00,CLR,,0.00,WeatherDisplay:10.37,2013-05-24 11:10:00,
2013-05-24 06:15:00,33.4,27.0,30.38,NE,49,0.0,0.0,77,0.00,CLR,,0.00,WeatherDisplay:10.37,2013-05-24 11:15:00,
2013-05-24 06:20:00,33.6,27.2,30.38,NE,49,0.0,0.0,77,0.00,CLR,,0.00,WeatherDisplay:10.37,2013-05-24 11:20:00,
2013-05-24 06:25:00,34.2,27.7,30.38,NE,49,0.0,0.0,77,0.00,CLR,,0.00,WeatherDisplay:10.37,2013-05-24 11:25:00,
2013-05-24 06:30:00,35.2,29.1,30.38,NE,49,0.0,0.0,78,0.00,CLR,,0.00,WeatherDisplay:10.37,2013-05-24 11:30:00,
2013-05-24 06:35:00,37.0,31.1,30.38,NE,49,0.0,0.0,79,0.00,CLR,,0.00,WeatherDisplay:10.37,2013-05-24 11:35:00,
2013-05-24 06:41:00,39.2,33.2,30.38,NE,49,0.0,0.0,79,0.00,CLR,,0.00,WeatherDisplay:10.37,2013-05-24 11:41:00,
2013-05-24 06:46:00,41.2,35.5,30.38,NE,49,0.0,0.0,80,0.00,CLR,,0.00,WeatherDisplay:10.37,2013-05-24 11:46:00,
2013-05-24 06:51:00,43.0,37.2,30.41,NE,49,0.0,0.0,80,0.00,CLR,,0.00,WeatherDisplay:10.37,2013-05-24 11:51:00,
2013-05-24 06:56:00,43.7,37.9,30.41,NE,49,0.0,0.0,80,0.00,CLR,,0.00,WeatherDisplay:10.37,2013-05-24 11:56:00,
2013-05-24 07:01:00,44.1,37.0,30.41,NE,49,0.0,0.0,76,0.00,CLR,,0.00,WeatherDisplay:10.37,2013-05-24 12:01:00,
2013-05-24 07:06:00,43.7,34.9,30.41,SE,124,0.0,0.0,71,0.00,CLR,,0.00,WeatherDisplay:10.37,2013-05-24 12:06:00,
2013-05-24 07:12:00,43.7,33.8,30.41,SE,124,0.0,0.0,68,0.00,CLR,,0.00,WeatherDisplay:10.37,2013-05-24 12:12:00,
2013-05-24 07:17:00,44.1,32.3,30.41,ESE,108,0.0,0.0,63,0.00,CLR,,0.00,WeatherDisplay:10.37,2013-05-24 12:17:00,
2013-05-24 07:22:00,44.2,31.6,30.41,SE,141,0.0,0.0,61,0.00,CLR,,0.00,WeatherDisplay:10.37,2013-05-24 12:22:00,
2013-05-24 07:27:00,44.1,31.1,30.41,ESE,120,0.0,0.0,60,0.00,CLR,,0.00,WeatherDisplay:10.37,2013-05-24 12:27:00,
2013-05-24 07:33:00,44.8,31.3,30.38,SE,144,0.0,0.0,59,0.00,CLR,,0.00,WeatherDisplay:10.37,2013-05-24 12:33:00,
2013-05-24 07:38:00,45.7,32.2,30.38,SE,145,0.0,0.0,59,0.00,CLR,,0.00,WeatherDisplay:10.37,2013-05-24 12:38:00,
2013-05-24 07:43:00,46.6,32.6,30.38,East,82,0.0,0.0,58,0.00,CLR,,0.00,WeatherDisplay:10.37,2013-05-24 12:43:00,
2013-05-24 07:49:00,46.8,32.3,30.41,SE,146,0.0,0.0,57,0.00,CLR,,0.00,WeatherDisplay:10.37,2013-05-24 12:49:00,
2013-05-24 07:54:00,46.8,32.3,30.41,SE,140,3.5,3.5,57,0.00,CLR,,0.00,WeatherDisplay:10.37,2013-05-24 12:54:00,
2013-05-24 07:59:00,46.8,31.9,30.41,ESE,121,0.0,0.0,56,0.00,CLR,,0.00,WeatherDisplay:10.37,2013-05-24 12:59:00,
2013-05-24 08:04:00,46.9,32.0,30.41,East,83,0.0,0.0,56,0.00,CLR,,0.00,WeatherDisplay:10.37,2013-05-24 13:04:00,
2013-05-24 08:09:00,46.9,31.6,30.41,SSE,161,2.3,0.0,55,0.00,CLR,,0.00,WeatherDisplay:10.37,2013-05-24 13:09:00,
2013-05-24 08:15:00,47.1,31.8,30.41,SSW,200,0.0,0.0,55,0.00,CLR,,0.00,WeatherDisplay:10.37,2013-05-24 13:15:00,
2013-05-24 08:20:00,47.5,31.6,30.41,ESE,106,0.0,0.0,54,0.00,CLR,,0.00,WeatherDisplay:10.37,2013-05-24 13:20:00,
2013-05-24 08:25:00,47.8,31.5,30.41,East,84,0.0,0.0,53,0.00,CLR,,0.00,WeatherDisplay:10.37,2013-05-24 13:25:00,
2013-05-24 08:30:00,48.4,31.1,30.41,South,178,3.5,3.5,51,0.00,CLR,,0.00,WeatherDisplay:10.37,2013-05-24 13:30:00,
2013-05-24 08:35:00,48.9,31.1,30.41,SSW,197,3.5,3.5,50,0.00,CLR,,0.00,WeatherDisplay:10.37,2013-05-24 13:35:00,
2013-05-24 08:40:00,49.8,31.4,30.41,SE,140,4.0,4.0,49,0.00,CLR,,0.00,WeatherDisplay:10.37,2013-05-24 13:40:00,
2013-05-24 08:46:00,50.5,31.6,30.41,SE,139,2.3,0.0,48,0.00,CLR,,0.00,WeatherDisplay:10.37,2013-05-24 13:46:00,
2013-05-24 08:51:00,51.4,31.9,30.41,SSW,208,3.6,0.0,47,0.00,CLR,,0.00,WeatherDisplay:10.37,2013-05-24 13:51:00,
2013-05-24 08:56:00,52.3,32.7,30.41,SW,217,0.0,0.0,47,0.00,CLR,,0.00,WeatherDisplay:10.37,2013-05-24 13:56:00,
2013-05-24 09:01:00,53.1,33.3,30.41,SW,227,3.5,3.5,47,0.00,CLR,,0.00,WeatherDisplay:10.37,2013-05-24 14:01:00,
2013-05-24 09:06:00,54.0,33.6,30.41,SSW,212,3.5,3.5,46,0.00,CLR,,0.00,WeatherDisplay:10.37,2013-05-24 14:06:00,
2013-05-24 09:11:00,55.6,34.6,30.41,East,95,5.8,5.8,45,0.00,CLR,,0.00,WeatherDisplay:10.37,2013-05-24 14:11:00,
2013-05-24 09:16:00,56.7,35.5,30.41,SSW,192,3.5,3.5,45,0.00,CLR,,0.00,WeatherDisplay:10.37,2013-05-24 14:16:00,
2013-05-24 09:21:00,57.4,35.6,30.41,SW,221,5.8,5.8,44,0.00,CLR,,0.00,WeatherDisplay:10.37,2013-05-24 14:21:00,
2013-05-24 09:27:00,56.8,35.7,30.41,SW,216,3.5,3.5,45,0.00,CLR,,0.00,WeatherDisplay:10.37,2013-05-24 14:27:00,
2013-05-24 09:32:00,57.4,35.6,30.41,South,180,3.5,3.5,44,0.00,CLR,,0.00,WeatherDisplay:10.37,2013-05-24 14:32:00,
2013-05-24 09:37:00,58.3,36.4,30.41,West,262,3.5,3.5,44,0.00,CLR,,0.00,WeatherDisplay:10.37,2013-05-24 14:37:00,
2013-05-24 09:42:00,59.0,37.1,30.41,SW,229,5.8,0.0,44,0.00,CLR,,0.00,WeatherDisplay:10.37,2013-05-24 14:42:00,
2013-05-24 09:47:00,59.4,37.4,30.41,SSE,166,2.3,0.0,44,0.00,CLR,,0.00,WeatherDisplay:10.37,2013-05-24 14:47:00,
2013-05-24 09:52:00,60.1,38.1,30.41,SSW,196,3.5,3.5,44,0.00,CLR,,0.00,WeatherDisplay:10.37,2013-05-24 14:52:00,
2013-05-24 09:58:00,60.6,37.4,30.41,SW,231,2.3,0.0,42,0.00,CLR,,0.00,WeatherDisplay:10.37,2013-05-24 14:58:00,
2013-05-24 10:03:00,60.8,36.9,30.41,ESE,113,3.5,0.0,41,0.00,CLR,,0.00,WeatherDisplay:10.37,2013-05-24 15:03:00,
2013-05-24 10:08:00,60.6,37.4,30.41,ENE,61,3.5,3.5,42,0.00,CLR,,0.00,WeatherDisplay:10.37,2013-05-24 15:08:00,
2013-05-24 10:13:00,61.0,37.1,30.41,SE,127,3.5,3.5,41,0.00,CLR,,0.00,WeatherDisplay:10.37,2013-05-24 15:13:00,
2013-05-24 10:18:00,60.6,37.4,30.41,SW,224,5.8,5.8,42,0.00,CLR,,0.00,WeatherDisplay:10.37,2013-05-24 15:18:00,
2013-05-24 10:23:00,59.4,36.2,30.41,SE,128,5.8,5.8,42,0.00,CLR,,0.00,WeatherDisplay:10.37,2013-05-24 15:23:00,
2013-05-24 10:28:00,59.7,36.6,30.41,South,174,3.1,0.0,42,0.00,CLR,,0.00,WeatherDisplay:10.37,2013-05-24 15:28:00,
2013-05-24 10:33:00,60.3,37.1,30.41,East,98,5.8,5.8,42,0.00,CLR,,0.00,WeatherDisplay:10.37,2013-05-24 15:33:00,
2013-05-24 10:39:00,60.8,36.9,30.41,SW,216,2.7,0.0,41,0.00,CLR,,0.00,WeatherDisplay:10.37,2013-05-24 15:39:00,
2013-05-24 10:44:00,61.3,37.4,30.41,SE,126,3.5,0.0,41,0.00,CLR,,0.00,WeatherDisplay:10.37,2013-05-24 15:44:00,
2013-05-24 10:49:00,61.7,37.7,30.41,SSE,150,3.5,3.5,41,0.00,CLR,,0.00,WeatherDisplay:10.37,2013-05-24 15:49:00,
2013-05-24 10:54:00,62.1,38.1,30.41,NW,315,5.8,5.8,41,0.00,CLR,,0.00,WeatherDisplay:10.37,2013-05-24 15:54:00,
2013-05-24 10:59:00,61.7,37.7,30.41,ENE,75,3.5,3.5,41,0.00,CLR,,0.00,WeatherDisplay:10.37,2013-05-24 15:59:00,
2013-05-24 11:04:00,61.3,37.4,30.41,SE,129,3.5,3.5,41,0.00,CLR,,0.00,WeatherDisplay:10.37,2013-05-24 16:04:00,
2013-05-24 11:10:00,61.3,37.4,30.41,East,95,3.5,0.0,41,0.00,CLR,,0.00,WeatherDisplay:10.37,2013-05-24 16:10:00,
2013-05-24 11:15:00,61.3,37.4,30.41,SE,129,3.5,3.6,41,0.00,CLR,,0.00,WeatherDisplay:10.37,2013-05-24 16:15:00,
2013-05-24 11:20:00,61.7,37.7,30.41,East,92,5.8,5.8,41,0.00,CLR,,0.00,WeatherDisplay:10.37,2013-05-24 16:20:00,
2013-05-24 11:26:00,61.9,37.9,30.41,ENE,77,3.5,3.5,41,0.00,CLR,,0.00,WeatherDisplay:10.37,2013-05-24 16:26:00,
2013-05-24 11:31:00,62.2,38.2,30.41,SE,128,2.3,2.3,41,0.00,CLR,,0.00,WeatherDisplay:10.37,2013-05-24 16:31:00,
2013-05-24 11:36:00,62.4,38.4,30.38,SE,135,5.8,5.8,41,0.00,CLR,,0.00,WeatherDisplay:10.37,2013-05-24 16:36:00,
2013-05-24 11:42:00,62.2,38.2,30.38,SSE,155,3.5,4.0,41,0.00,CLR,,0.00,WeatherDisplay:10.37,2013-05-24 16:42:00,
2013-05-24 11:47:00,62.8,38.7,30.38,SW,215,3.5,3.5,41,0.00,CLR,,0.00,WeatherDisplay:10.37,2013-05-24 16:47:00,
2013-05-24 11:52:00,63.0,38.9,30.38,SSE,164,5.8,5.8,41,0.00,CLR,,0.00,WeatherDisplay:10.37,2013-05-24 16:52:00,
2013-05-24 11:57:00,63.3,39.2,30.38,SSE,156,3.5,3.5,41,0.00,CLR,,0.00,WeatherDisplay:10.37,2013-05-24 16:57:00,
2013-05-24 12:02:00,63.5,39.4,30.38,East,85,2.3,4.5,41,0.00,CLR,,0.00,WeatherDisplay:10.37,2013-05-24 17:02:00,
2013-05-24 12:08:00,63.5,37.4,30.38,East,98,5.8,5.8,38,0.00,CLR,,0.00,WeatherDisplay:10.37,2013-05-24 17:08:00,
2013-05-24 12:13:00,63.7,37.6,30.38,SSE,156,4.0,4.0,38,0.00,CLR,,0.00,WeatherDisplay:10.37,2013-05-24 17:13:00,
2013-05-24 12:18:00,64.0,39.8,30.35,SE,139,3.5,3.5,41,0.00,CLR,,0.00,WeatherDisplay:10.37,2013-05-24 17:18:00,
2013-05-24 12:23:00,64.4,39.5,30.35,SSE,154,5.8,5.8,40,0.00,CLR,,0.00,WeatherDisplay:10.37,2013-05-24 17:23:00,
2013-05-24 12:28:00,64.4,38.2,30.35,SSW,194,5.8,5.8,38,0.00,CLR,,0.00,WeatherDisplay:10.37,2013-05-24 17:28:00,
2013-05-24 12:34:00,64.6,38.4,30.38,South,169,5.8,5.8,38,0.00,CLR,,0.00,WeatherDisplay:10.37,2013-05-24 17:34:00,
2013-05-24 12:39:00,64.9,38.7,30.38,SSE,162,3.5,3.5,38,0.00,CLR,,0.00,WeatherDisplay:10.37,2013-05-24 17:39:00,
2013-05-24 12:44:00,65.1,38.9,30.38,WSW,249,3.5,0.0,38,0.00,CLR,,0.00,WeatherDisplay:10.37,2013-05-24 17:44:00,
2013-05-24 12:49:00,65.1,38.9,30.38,NE,39,3.5,3.5,38,0.00,CLR,,0.00,WeatherDisplay:10.37,2013-05-24 17:49:00,
2013-05-24 12:54:00,65.3,39.0,30.38,WSW,253,5.8,5.8,38,0.00,CLR,,0.00,WeatherDisplay:10.37,2013-05-24 17:54:00,
2013-05-24 12:59:00,65.3,39.0,30.38,ENE,67,4.9,4.9,38,0.00,CLR,,0.00,WeatherDisplay:10.37,2013-05-24 17:59:00,
2013-05-24 13:04:00,65.3,39.0,30.35,South,183,5.8,5.8,38,0.00,CLR,,0.00,WeatherDisplay:10.37,2013-05-24 18:04:00,
2013-05-24 13:09:00,65.5,39.2,30.35,SE,133,5.8,0.0,38,0.00,CLR,,0.00,WeatherDisplay:10.37,2013-05-24 18:09:00,
2013-05-24 13:15:00,65.5,39.2,30.35,South,186,3.6,3.6,38,0.00,CLR,,0.00,WeatherDisplay:10.37,2013-05-24 18:15:00,
2013-05-24 13:20:00,65.5,39.2,30.35,SE,127,3.5,3.5,38,0.00,CLR,,0.00,WeatherDisplay:10.37,2013-05-24 18:20:00,
2013-05-24 13:25:00,65.7,39.3,30.35,East,83,3.5,0.0,38,0.00,CLR,,0.00,WeatherDisplay:10.37,2013-05-24 18:25:00,
2013-05-24 13:30:00,66.0,39.7,30.35,ESE,109,2.3,2.3,38,0.00,CLR,,0.00,WeatherDisplay:10.37,2013-05-24 18:30:00,
2013-05-24 13:35:00,66.2,39.1,30.35,ENE,75,3.5,3.5,37,0.00,CLR,,0.00,WeatherDisplay:10.37,2013-05-24 18:35:00,
2013-05-24 13:40:00,66.2,39.1,30.35,East,80,5.8,5.8,37,0.00,CLR,,0.00,WeatherDisplay:10.37,2013-05-24 18:40:00,
2013-05-24 13:46:00,66.2,39.1,30.35,North,4,5.8,5.8,37,0.00,CLR,,0.00,WeatherDisplay:10.37,2013-05-24 18:46:00,
2013-05-24 13:51:00,66.2,39.1,30.35,SSW,192,3.5,3.5,37,0.00,CLR,,0.00,WeatherDisplay:10.37,2013-05-24 18:51:00,
2013-05-24 13:56:00,66.2,39.1,30.35,SSE,161,3.5,3.5,37,0.00,CLR,,0.00,WeatherDisplay:10.37,2013-05-24 18:56:00,
2013-05-24 14:01:00,66.2,39.1,30.35,SSW,207,4.6,4.6,37,0.00,CLR,,0.00,WeatherDisplay:10.37,2013-05-24 19:01:00,
2013-05-24 14:06:00,66.4,39.3,30.35,SSE,153,5.8,5.8,37,0.00,CLR,,0.00,WeatherDisplay:10.37,2013-05-24 19:06:00,
2013-05-24 14:11:00,66.7,39.6,30.35,SSE,166,3.5,3.5,37,0.00,CLR,,0.00,WeatherDisplay:10.37,2013-05-24 19:11:00,
2013-05-24 14:17:00,66.9,39.8,30.35,SSE,156,5.8,5.8,37,0.00,CLR,,0.00,WeatherDisplay:10.37,2013-05-24 19:17:00,
2013-05-24 14:22:00,66.7,39.6,30.35,SW,218,9.2,9.2,37,0.00,CLR,,0.00,WeatherDisplay:10.37,2013-05-24 19:22:00,
2013-05-24 14:27:00,66.4,39.3,30.35,SW,224,8.1,8.1,37,0.00,CLR,,0.00,WeatherDisplay:10.37,2013-05-24 19:27:00,
2013-05-24 14:32:00,66.6,39.5,30.35,SSE,157,4.0,4.0,37,0.00,CLR,,0.00,WeatherDisplay:10.37,2013-05-24 19:32:00,
2013-05-24 14:37:00,66.6,39.5,30.35,ESE,102,3.5,3.5,37,0.00,CLR,,0.00,WeatherDisplay:10.37,2013-05-24 19:37:00,
2013-05-24 14:42:00,66.7,39.6,30.35,East,95,4.6,4.6,37,0.00,CLR,,0.00,WeatherDisplay:10.37,2013-05-24 19:42:00,
2013-05-24 14:47:00,66.9,39.8,30.32,SW,217,3.6,3.6,37,0.00,CLR,,0.00,WeatherDisplay:10.37,2013-05-24 19:47:00,
2013-05-24 14:52:00,67.3,40.1,30.32,South,191,4.6,4.6,37,0.00,CLR,,0.00,WeatherDisplay:10.37,2013-05-24 19:52:00,
2013-05-24 14:58:00,67.8,40.6,30.32,SSW,213,6.9,6.9,37,0.00,CLR,,0.00,WeatherDisplay:10.37,2013-05-24 19:58:00,
2013-05-24 15:03:00,68.0,40.7,30.32,SE,133,3.5,3.5,37,0.00,CLR,,0.00,WeatherDisplay:10.37,2013-05-24 20:03:00,
2013-05-24 15:08:00,67.5,40.3,30.32,WSW,249,0.0,0.0,37,0.00,CLR,,0.00,WeatherDisplay:10.37,2013-05-24 20:08:00,
2013-05-24 15:13:00,67.3,40.1,30.32,SW,220,3.5,3.5,37,0.00,CLR,,0.00,WeatherDisplay:10.37,2013-05-24 20:13:00,
2013-05-24 15:18:00,67.5,40.3,30.32,SE,146,5.8,5.8,37,0.00,CLR,,0.00,WeatherDisplay:10.37,2013-05-24 20:18:00,
2013-05-24 15:23:00,67.6,40.4,30.32,SW,222,5.8,5.8,37,0.00,CLR,,0.00,WeatherDisplay:10.37,2013-05-24 20:23:00,
2013-05-24 15:28:00,67.6,40.4,30.32,SSW,210,3.5,3.5,37,0.00,CLR,,0.00,WeatherDisplay:10.37,2013-05-24 20:28:00,
2013-05-24 15:33:00,67.6,40.4,30.29,SE,129,5.8,5.8,37,0.00,CLR,,0.00,WeatherDisplay:10.37,2013-05-24 20:33:00,
2013-05-24 15:39:00,67.5,40.3,30.29,East,89,5.8,5.8,37,0.00,CLR,,0.00,WeatherDisplay:10.37,2013-05-24 20:39:00,
2013-05-24 15:44:00,67.6,40.4,30.29,SW,216,5.8,5.8,37,0.00,CLR,,0.00,WeatherDisplay:10.37,2013-05-24 20:44:00,
2013-05-24 15:49:00,67.5,40.3,30.29,WSW,241,5.8,5.8,37,0.00,CLR,,0.00,WeatherDisplay:10.37,2013-05-24 20:49:00,
2013-05-24 15:54:00,67.3,40.1,30.29,ESE,112,2.3,2.7,37,0.00,CLR,,0.00,WeatherDisplay:10.37,2013-05-24 20:54:00,
2013-05-24 15:59:00,67.5,40.3,30.29,West,259,0.0,0.0,37,0.00,CLR,,0.00,WeatherDisplay:10.37,2013-05-24 20:59:00,
2013-05-24 16:04:00,67.6,40.4,30.29,NNE,22,0.0,0.0,37,0.00,CLR,,0.00,WeatherDisplay:10.37,2013-05-24 21:04:00,
2013-05-24 16:09:00,68.0,40.7,30.29,South,184,3.6,3.6,37,0.00,CLR,,0.00,WeatherDisplay:10.37,2013-05-24 21:09:00,
2013-05-24 16:15:00,68.0,40.7,30.29,South,172,5.8,5.8,37,0.00,CLR,,0.00,WeatherDisplay:10.37,2013-05-24 21:15:00,
2013-05-24 16:20:00,67.8,40.6,30.26,ESE,103,4.0,4.0,37,0.00,CLR,,0.00,WeatherDisplay:10.37,2013-05-24 21:20:00,
2013-05-24 16:25:00,67.3,40.1,30.26,ESE,115,2.3,0.0,37,0.00,CLR,,0.00,WeatherDisplay:10.37,2013-05-24 21:25:00,
2013-05-24 16:30:00,67.3,40.1,30.26,South,190,3.5,0.0,37,0.00,CLR,,0.00,WeatherDisplay:10.37,2013-05-24 21:30:00,
2013-05-24 16:35:00,67.3,40.1,30.26,South,175,4.6,4.9,37,0.00,CLR,,0.00,WeatherDisplay:10.37,2013-05-24 21:35:00,
2013-05-24 16:41:00,66.9,39.8,30.26,SSE,155,3.5,0.0,37,0.00,CLR,,0.00,WeatherDisplay:10.37,2013-05-24 21:41:00,
2013-05-24 16:46:00,67.1,39.9,30.26,SSE,156,5.8,5.8,37,0.00,CLR,,0.00,WeatherDisplay:10.37,2013-05-24 21:46:00,
2013-05-24 16:51:00,67.5,40.3,30.26,SSE,148,5.8,5.8,37,0.00,CLR,,0.00,WeatherDisplay:10.37,2013-05-24 21:51:00,
2013-05-24 16:56:00,67.6,40.4,30.26,SSE,156,5.8,5.8,37,0.00,CLR,,0.00,WeatherDisplay:10.37,2013-05-24 21:56:00,
2013-05-24 17:01:00,67.6,40.4,30.26,SSW,198,4.0,4.0,37,0.00,CLR,,0.00,WeatherDisplay:10.37,2013-05-24 22:01:00,
2013-05-24 17:07:00,67.3,40.1,30.26,SSW,193,8.1,8.1,37,0.00,CLR,,0.00,WeatherDisplay:10.37,2013-05-24 22:07:00,
2013-05-24 17:12:00,67.3,40.1,30.26,SSE,160,3.5,3.5,37,0.00,CLR,,0.00,WeatherDisplay:10.37,2013-05-24 22:12:00,
2013-05-24 17:17:00,67.8,40.6,30.26,SW,220,10.9,10.9,37,0.00,CLR,,0.00,WeatherDisplay:10.37,2013-05-24 22:17:00,
2013-05-24 17:22:00,68.2,40.9,30.29,SW,234,8.1,8.1,37,0.00,CLR,,0.00,WeatherDisplay:10.37,2013-05-24 22:22:00,
2013-05-24 17:27:00,68.5,41.2,30.29,SW,230,3.6,3.6,37,0.00,CLR,,0.00,WeatherDisplay:10.37,2013-05-24 22:27:00,
2013-05-24 17:32:00,68.5,41.2,30.26,SSW,195,8.1,8.1,37,0.00,CLR,,0.00,WeatherDisplay:10.37,2013-05-24 22:32:00,
2013-05-24 17:37:00,68.5,41.2,30.26,SSW,210,8.0,8.0,37,0.00,CLR,,0.00,WeatherDisplay:10.37,2013-05-24 22:37:00,
2013-05-24 17:42:00,68.5,41.2,30.26,SSW,205,8.1,8.1,37,0.00,CLR,,0.00,WeatherDisplay:10.37,2013-05-24 22:42:00,
2013-05-24 17:48:00,68.4,41.1,30.26,WSW,243,8.1,8.1,37,0.00,CLR,,0.00,WeatherDisplay:10.37,2013-05-24 22:48:00,
2013-05-24 17:53:00,68.2,40.9,30.26,SSW,210,3.5,3.5,37,0.00,CLR,,0.00,WeatherDisplay:10.37,2013-05-24 22:53:00,
2013-05-24 17:58:00,67.8,40.6,30.26,South,170,5.8,5.8,37,0.00,CLR,,0.00,WeatherDisplay:10.37,2013-05-24 22:58:00,
2013-05-24 18:03:00,67.3,40.1,30.29,SSE,164,3.5,0.0,37,0.00,CLR,,0.00,WeatherDisplay:10.37,2013-05-24 23:03:00,
2013-05-24 18:08:00,66.7,39.6,30.29,SSW,193,3.5,3.5,37,0.00,CLR,,0.00,WeatherDisplay:10.37,2013-05-24 23:08:00,
2013-05-24 18:14:00,66.4,39.3,30.29,SW,214,3.5,0.0,37,0.00,CLR,,0.00,WeatherDisplay:10.37,2013-05-24 23:14:00,
2013-05-24 18:19:00,66.2,39.1,30.26,SSE,159,0.0,0.0,37,0.00,CLR,,0.00,WeatherDisplay:10.37,2013-05-24 23:19:00,
2013-05-24 18:24:00,66.0,39.7,30.26,South,170,3.5,0.0,38,0.00,CLR,,0.00,WeatherDisplay:10.37,2013-05-24 23:24:00,
2013-05-24 18:29:00,66.0,39.7,30.26,WSW,246,4.6,4.6,38,0.00,CLR,,0.00,WeatherDisplay:10.37,2013-05-24 23:29:00,
2013-05-24 18:34:00,65.8,39.5,30.29,West,270,3.5,3.6,38,0.00,CLR,,0.00,WeatherDisplay:10.37,2013-05-24 23:34:00,
2013-05-24 18:40:00,65.7,39.3,30.29,SSW,201,3.6,3.6,38,0.00,CLR,,0.00,WeatherDisplay:10.37,2013-05-24 23:40:00,
2013-05-24 18:45:00,65.7,39.3,30.29,SW,218,3.5,3.5,38,0.00,CLR,,0.00,WeatherDisplay:10.37,2013-05-24 23:45:00,
2013-05-24 18:50:00,65.7,39.3,30.29,SSW,212,3.5,3.5,38,0.00,CLR,,0.00,WeatherDisplay:10.37,2013-05-24 23:50:00,
2013-05-24 18:56:00,65.7,39.3,30.29,WSW,254,3.5,3.5,38,0.00,CLR,,0.00,WeatherDisplay:10.37,2013-05-24 23:56:00,
2013-05-24 19:01:00,65.7,39.3,30.29,SSW,209,4.6,4.6,38,0.00,CLR,,0.00,WeatherDisplay:10.37,2013-05-25 00:01:00,
2013-05-24 19:06:00,65.5,39.2,30.29,SW,225,3.5,3.5,38,0.00,CLR,,0.00,WeatherDisplay:10.37,2013-05-25 00:06:00,
2013-05-24 19:11:00,65.5,39.2,30.29,SSW,213,3.5,3.5,38,0.00,CLR,,0.00,WeatherDisplay:10.37,2013-05-25 00:11:00,
2013-05-24 19:16:00,65.1,38.9,30.29,South,189,3.5,3.5,38,0.00,CLR,,0.00,WeatherDisplay:10.37,2013-05-25 00:16:00,
2013-05-24 19:22:00,64.8,38.5,30.29,SW,229,3.5,3.5,38,0.00,CLR,,0.00,WeatherDisplay:10.37,2013-05-25 00:22:00,
2013-05-24 19:27:00,64.2,38.1,30.29,SW,221,3.5,3.5,38,0.00,CLR,,0.00,WeatherDisplay:10.37,2013-05-25 00:27:00,
2013-05-24 19:32:00,63.9,37.7,30.29,SSW,209,3.5,3.5,38,0.00,CLR,,0.00,WeatherDisplay:10.37,2013-05-25 00:32:00,
2013-05-24 19:37:00,63.5,37.4,30.29,SSW,202,3.5,3.5,38,0.00,CLR,,0.00,WeatherDisplay:10.37,2013-05-25 00:37:00,
2013-05-24 19:43:00,63.3,37.3,30.29,SSW,200,2.3,0.0,38,0.00,CLR,,0.00,WeatherDisplay:10.37,2013-05-25 00:43:00,
2013-05-24 19:48:00,63.1,37.1,30.29,SSW,212,0.0,0.0,38,0.00,CLR,,0.00,WeatherDisplay:10.37,2013-05-25 00:48:00,
2013-05-24 19:53:00,62.8,36.8,30.29,SSW,212,0.0,0.0,38,0.00,CLR,,0.00,WeatherDisplay:10.37,2013-05-25 00:53:00,
2013-05-24 19:59:00,62.6,36.6,30.29,SSW,212,0.0,0.0,38,0.00,CLR,,0.00,WeatherDisplay:10.37,2013-05-25 00:59:00,
2013-05-24 20:04:00,62.1,38.1,30.26,SSW,212,0.0,0.0,41,0.00,CLR,,0.00,WeatherDisplay:10.37,2013-05-25 01:04:00,
2013-05-24 20:09:00,61.7,37.7,30.26,SSW,212,0.0,0.0,41,0.00,CLR,,0.00,WeatherDisplay:10.37,2013-05-25 01:09:00,
2013-05-24 20:14:00,61.0,37.1,30.26,SSW,212,0.0,0.0,41,0.00,CLR,,0.00,WeatherDisplay:10.37,2013-05-25 01:14:00,
2013-05-24 20:19:00,60.6,37.4,30.26,SSW,212,0.0,0.0,42,0.00,CLR,,0.00,WeatherDisplay:10.37,2013-05-25 01:19:00,
2013-05-24 20:24:00,60.1,36.9,30.26,SSW,212,0.0,0.0,42,0.00,CLR,,0.00,WeatherDisplay:10.37,2013-05-25 01:24:00,
2013-05-24 20:29:00,59.5,37.6,30.26,SE,146,0.0,0.0,44,0.00,CLR,,0.00,WeatherDisplay:10.37,2013-05-25 01:29:00,
2013-05-24 20:34:00,59.2,37.3,30.26,SE,146,0.0,0.0,44,0.00,CLR,,0.00,WeatherDisplay:10.37,2013-05-25 01:34:00,
2013-05-24 20:39:00,58.8,36.9,30.26,SE,146,0.0,0.0,44,0.00,CLR,,0.00,WeatherDisplay:10.37,2013-05-25 01:39:00,
2013-05-24 20:45:00,58.5,37.2,30.26,SE,146,0.0,0.0,45,0.00,CLR,,0.00,WeatherDisplay:10.37,2013-05-25 01:45:00,
2013-05-24 20:50:00,58.1,36.9,30.26,SE,146,0.0,0.0,45,0.00,CLR,,0.00,WeatherDisplay:10.37,2013-05-25 01:50:00,
2013-05-24 20:55:00,57.7,36.5,30.26,SE,146,0.0,0.0,45,0.00,CLR,,0.00,WeatherDisplay:10.37,2013-05-25 01:55:00,
2013-05-24 21:00:00,57.6,36.9,30.26,SE,146,0.0,0.0,46,0.00,CLR,,0.00,WeatherDisplay:10.37,2013-05-25 02:00:00,
2013-05-24 21:05:00,57.2,36.6,30.26,SE,146,0.0,0.0,46,0.00,CLR,,0.00,WeatherDisplay:10.37,2013-05-25 02:05:00,
2013-05-24 21:10:00,57.2,36.6,30.26,SE,146,0.0,0.0,46,0.00,CLR,,0.00,WeatherDisplay:10.37,2013-05-25 02:10:00,
2013-05-24 21:16:00,57.0,36.4,30.26,SE,146,0.0,0.0,46,0.00,CLR,,0.00,WeatherDisplay:10.37,2013-05-25 02:16:00,
2013-05-24 21:21:00,57.0,36.4,30.26,SE,146,0.0,0.0,46,0.00,CLR,,0.00,WeatherDisplay:10.37,2013-05-25 02:21:00,
2013-05-24 21:26:00,56.8,36.3,30.26,SE,146,0.0,0.0,46,0.00,CLR,,0.00,WeatherDisplay:10.37,2013-05-25 02:26:00,
2013-05-24 21:31:00,56.8,36.3,30.26,SE,146,0.0,0.0,46,0.00,CLR,,0.00,WeatherDisplay:10.37,2013-05-25 02:31:00,
2013-05-24 21:36:00,56.8,36.8,30.26,SE,146,0.0,0.0,47,0.00,CLR,,0.00,WeatherDisplay:10.37,2013-05-25 02:36:00,
2013-05-24 21:42:00,56.8,36.8,30.26,SE,146,0.0,0.0,47,0.00,CLR,,0.00,WeatherDisplay:10.37,2013-05-25 02:42:00,
2013-05-24 21:47:00,56.8,36.8,30.26,SE,146,0.0,0.0,47,0.00,CLR,,0.00,WeatherDisplay:10.37,2013-05-25 02:47:00,
2013-05-24 21:52:00,56.7,36.6,30.26,East,94,0.0,0.0,47,0.00,CLR,,0.00,WeatherDisplay:10.37,2013-05-25 02:52:00,
2013-05-24 21:57:00,56.7,37.2,30.26,East,93,0.0,0.0,48,0.00,CLR,,0.00,WeatherDisplay:10.37,2013-05-25 02:57:00,
2013-05-24 22:02:00,56.7,37.2,30.26,East,93,0.0,0.0,48,0.00,CLR,,0.00,WeatherDisplay:10.37,2013-05-25 03:02:00,
2013-05-24 22:08:00,56.5,37.0,30.26,East,93,0.0,0.0,48,0.00,CLR,,0.00,WeatherDisplay:10.37,2013-05-25 03:08:00,
2013-05-24 22:13:00,56.5,37.0,30.26,East,93,0.0,0.0,48,0.00,CLR,,0.00,WeatherDisplay:10.37,2013-05-25 03:13:00,
2013-05-24 22:18:00,56.3,36.8,30.29,East,93,0.0,0.0,48,0.00,CLR,,0.00,WeatherDisplay:10.37,2013-05-25 03:18:00,
2013-05-24 22:24:00,56.3,36.8,30.29,East,93,0.0,0.0,48,0.00,CLR,,0.00,WeatherDisplay:10.37,2013-05-25 03:24:00,
2013-05-24 22:29:00,56.1,36.7,30.29,East,93,0.0,0.0,48,0.00,CLR,,0.00,WeatherDisplay:10.37,2013-05-25 03:29:00,
2013-05-24 22:34:00,55.9,37.0,30.29,East,93,0.0,0.0,49,0.00,CLR,,0.00,WeatherDisplay:10.37,2013-05-25 03:34:00,
2013-05-24 22:39:00,55.9,37.0,30.29,East,93,0.0,0.0,49,0.00,CLR,,0.00,WeatherDisplay:10.37,2013-05-25 03:39:00,
2013-05-24 22:45:00,55.6,36.7,30.29,East,93,0.0,0.0,49,0.00,CLR,,0.00,WeatherDisplay:10.37,2013-05-25 03:45:00,
2013-05-24 22:50:00,55.6,36.7,30.29,East,93,0.0,0.0,49,0.00,CLR,,0.00,WeatherDisplay:10.37,2013-05-25 03:50:00,
2013-05-24 22:55:00,55.4,36.5,30.29,East,93,0.0,0.0,49,0.00,CLR,,0.00,WeatherDisplay:10.37,2013-05-25 03:55:00,
2013-05-24 23:00:00,55.4,37.1,30.29,East,93,0.0,0.0,50,0.00,CLR,,0.00,WeatherDisplay:10.37,2013-05-25 04:00:00,
2013-05-24 23:01:00,55.4,37.1,30.29,East,93,0.0,0.0,50,0.00,CLR,,0.00,WeatherDisplay:10.37,2013-05-25 04:01:00,
2013-05-24 23:02:00,55.2,36.9,30.29,East,93,0.0,0.0,50,0.00,CLR,,0.00,WeatherDisplay:10.37,2013-05-25 04:02:00,
2013-05-24 23:06:00,55.2,36.9,30.26,SE,131,0.0,0.0,50,0.00,CLR,,0.00,WeatherDisplay:10.37,2013-05-25 04:06:00,
2013-05-24 23:11:00,55.2,36.9,30.26,SE,142,0.0,0.0,50,0.00,CLR,,0.00,WeatherDisplay:10.37,2013-05-25 04:11:00,
2013-05-24 23:17:00,55.2,36.9,30.29,ESE,122,0.0,0.0,50,0.00,CLR,,0.00,WeatherDisplay:10.37,2013-05-25 04:17:00,
2013-05-24 23:22:00,55.0,36.7,30.29,ESE,122,0.0,0.0,50,0.00,CLR,,0.00,WeatherDisplay:10.37,2013-05-25 04:22:00,
2013-05-24 23:32:00,55.0,36.7,30.29,SE,125,0.0,0.0,50,0.00,CLR,,0.00,WeatherDisplay:10.37,2013-05-25 04:32:00,
2013-05-24 23:37:00,55.0,36.7,30.29,ESE,105,0.0,0.0,50,0.00,CLR,,0.00,WeatherDisplay:10.37,2013-05-25 04:37:00,
2013-05-24 23:43:00,54.9,36.6,30.29,ESE,105,0.0,0.0,50,0.00,CLR,,0.00,WeatherDisplay:10.37,2013-05-25 04:43:00,
2013-05-24 23:48:00,54.9,36.6,30.29,ESE,105,0.0,0.0,50,0.00,CLR,,0.00,WeatherDisplay:10.37,2013-05-25 04:48:00,
2013-05-24 23:53:00,54.7,36.9,30.29,ESE,105,0.0,0.0,51,0.00,CLR,,0.00,WeatherDisplay:10.37,2013-05-25 04:53:00,
2013-05-24 23:58:00,54.7,36.9,30.29,ESE,105,0.0,0.0,51,0.00,CLR,,0.00,WeatherDisplay:10.37,2013-05-25 04:58:00,